Regional Weather Roundup
Issued by NWS

Home | Current Version | Previous Version | Graphics & Text | Print | Product List | Glossary Off
Versions: 1 2 3 4 5 6 7 8 9 10 11 12 13 14 15 16 17 18 19 20 21 22 23 24 25 26 27 28 29 30 31 32 33 34 35 36 37 38 39 40 41 42 43 44 45 46 47 48 49 50

000
ASUS43 KDMX 241106
RWRIA

WEATHER ROUNDUP FOR IOWA
NATIONAL WEATHER SERVICE DES MOINES IA
600 AM CDT SAT JUN 24 2017

NOTE: "FAIR" INDICATES FEW OR NO CLOUDS BELOW 12,000 FEET WITH NO
SIGNIFICANT WEATHER AND/OR OBSTRUCTIONS TO VISIBILITY.

* - THESE STATIONS ARE NOT NWS STATIONS...THUS NOT UNDER NWS
QUALITY CONTROL.  THEY ALSO DO NOT REPORT WEATHER SUCH
AS PRECIPITATION OR FOG.

IAZ001>003-012>014-020>022-031>034-043>046-241200-
   NORTHWEST IOWA

CITY           SKY/WX    TMP DP  RH WIND       PRES   REMARKS
CARROLL *      CLEAR     50  43  76 W9        30.11R
DENISON *      CLEAR     48  41  76 CALM      30.14S
LE MARS *      CLEAR     48  41  76 CALM      30.13S
ORANGE CITY *  CLEAR     45  41  87 W6        30.12S
SHELDON *      CLEAR     46  43  87 W7        30.09S
SIOUX CITY     CLEAR     47  41  80 CALM      30.14S
SPENCER        CLEAR     47  43  86 W3        30.09S
STORM LAKE *   CLEAR     48  43  81 W9        30.12R
$$

IAZ055>058-069>071-079>083-090>094-241200-
   SOUTHWEST IOWA

CITY           SKY/WX    TMP DP  RH WIND       PRES   REMARKS
ATLANTIC *     CLEAR     52  45  76 CALM      30.13R
AUDUBON *      CLEAR     50  45  81 CALM      30.13S
CLARINDA *     CLEAR     50  50 100 CALM      30.16S
COUNCIL BLFS * CLEAR     54  43  66 W5        30.15R
CRESTON *      PTCLDY    50  46  87 NW6       30.13S
HARLAN  *      CLEAR     48  45  87 CALM      30.17R
LAMONI         PTCLDY    54  47  77 NW8       30.11R
RED OAK *      CLEAR     52  48  87 W3        30.14R
SHENANDOAH *   CLEAR     50  46  87 CALM      30.15S
$$

IAZ047>049-059>061-072>074-084-241200-
   CENTRAL IOWA

CITY           SKY/WX    TMP DP  RH WIND       PRES   REMARKS
AMES           CLEAR     55  46  71 NW8       30.07S
BOONE *        CLEAR     52  45  76 W8        30.07S
DES MOINES     CLEAR     54  46  74 NW7       30.08R
GRINNELL*      CLEAR     54  49  83 W8        30.06S
KNOXVILLE *    CLEAR     54  50  87 W8        30.06S
MARSHALLTOWN   CLEAR     51  48  89 W8        30.04R
NEWTON *       CLEAR     54  48  82 MISG      30.07R
PELLA *        CLEAR     56  49  77 NW8       30.08R
PERRY *          N/A     49  46  90 W6        30.09S
$$

IAZ004>006-015-016-023>025-035-036-241200-
   NORTH CENTRAL IOWA

CITY           SKY/WX    TMP DP  RH WIND       PRES   REMARKS
ALGONA *       CLEAR     50  46  87 W9        30.07R
CLARION *        N/A     48  48 100 W7        30.07R
ESTHERVILLE    CLEAR     48  44  86 NW9       30.07R
FORT DODGE *   CLEAR     50  43  76 CALM      30.09R
MASON CITY     CLEAR     50  44  80 W10       30.06R
FOREST CITY *    N/A     48  39  71 NW6       30.05R
WEBSTER CITY * CLEAR     50  45  81 W9        30.06R
IOWA FALLS *     N/A     50  47  89 W7        30.06S
$$

IAZ007>011-017>019-026>030-037>042-050>054-066-241200-
   NORTHEAST IOWA

CITY           SKY/WX    TMP DP  RH WIND       PRES   REMARKS
CEDAR RAPIDS   CLEAR     53  52  96 W8        30.01R
CHARLES CITY * CLEAR     52  50  93 W10       30.02R
CLINTON *      CLEAR     56  54  93 NW12      29.98R
DUBUQUE        CLEAR     54  51  90 NW6       29.98R
MONTICELLO *   PTCLDY    55  52  88 NW7       29.99R
WATERLOO       CLEAR     54  47  77 VRB3      30.01R
$$

IAZ064-065-067-068-078-241200-
   EAST CENTRAL IOWA

CITY           SKY/WX    TMP DP  RH WIND       PRES   REMARKS
DAVENPORT      CLEAR     56  53  90 W9        29.99R
IOWA CITY      CLEAR     54  50  86 W6        30.03R
MT. PLEASANT * PTCLDY    57  50  76 W9        30.03S
MUSCATINE *    CLEAR     57  52  82 W10       30.02R
QUAD CITIES    CLEAR     61  51  70 NW12      29.98R
$$

IAZ062-063-075>077-085>089-095>099-241200-
   SOUTHEAST IOWA

CITY           SKY/WX    TMP DP  RH WIND       PRES   REMARKS
BURLINGTON     CLEAR     59  52  77 NW6       30.02R
FAIRFIELD *    PTCLDY    55  50  82 W9        30.04S
FORT MADISON * PTCLDY    57  52  82 W7        30.04R
KEOKUK *       CLEAR     57  52  82 W5        30.03R
OSKALOOSA *      N/A     51  49  92 W7        30.06S
OTTUMWA        CLEAR     52  51  97 W7        30.06R
WASHINGTON *   CLEAR     55  52  88 W9        30.04S
$$

ABBREVIATIONS USED IN REMARKS
   TC - TEMPERATURES IN CELSIUS
  WCI - WIND CHILL INDEX
   HX - HEAT INDEX
  VSB - VISIBILITY
$$





USA.gov is the U.S. government's official web portal to all federal, state and local government web resources and services.